Location: Jetmore Motorplex
(37.9889°N, 99.8876°W)
Time: 16:47:48
(UTC+00:00)

Cosmos 2369 Rocket - Pass Details

Date: 17 February 2020
Orbit: 827 x 854 km, 71.0° (Epoch: 28 March)

Event Time Altitude Azimuth Distance (km) Brightness Sun altitude
Rises 11:37:51 0° 343° (NNW) 3,428 5.2 -22.3°
Reaches altitude 10° 11:40:25 10° 349° (N) 2,490 4.5 -21.8°
Maximum altitude 11:45:56 48° 63° (ENE) 1,107 3.2 -20.7°
Drops below altitude 10° 11:51:25 10° 137° (SE) 2,474 5.2 -19.6°
Sets 11:53:57 0° 143° (SE) 3,404 5.9 -19.1°
